STARLINK-11506, 62466

Orbit data source: Space-Track

STARLINK-11506, 62466 is a payload satellite owned by SpaceX/Seattle (US) in LEO that was launched on Tue, 31 Dec 2024 UTC via an FALCON 9 launch vehicle from the Air Force Eastern Test Range (AFETR). Payload-class satellites include a variety of spacecraft equipped with specific instruments for various scientific and technological missions. These include communications satellites like Starlink; space stations such as the ISS; scientific satellites like the Hubble; Earth observation satellites from companies like Planet Labs, Umbra, and HawkEye 360; GPS; miniature CubeSats for education and research; and military/defense satellites.

Loading next visibility...
Identifier
62466, 2024-254E
Orbit
LEO
Country
Flag of USUS
Related business
Manufacturer
SpaceX/Seattle
Mission
Operational Commercial Communications
Bus & Motor
STARLINK V2MD, Unknown motor
Mass
960 kg wet, ~910 kg dry
Launch date (UTC)
2024-12-31 (1 year ago)
Launch vehicle
FALCON 9
Launch site
Air Force Eastern Test Range (AFETR)
Object type
Payload
Rocket body
Debris
Shape & HBR
Box + 2 Pan, 18.1 m
Radar Cross Section
36.964 m², Large (>1 m²)

Expand to show TLE details & history
Last TLE update: 12 hours ago

TLE from 12 hours ago
0 STARLINK-11506
1 62466U 24254E   26175.05433420  .00190285  00000-0  14502-2 0  9992
2 62466  42.9996 301.4918 0001828  42.0049 318.0959 15.70882093 85976
Epoch: 2026-06-24T01:18Z
TLE epoch observation values (Epoch: 2026-06-24T01:18:14.474Z)
Latitude
-0.00001°
Longitude
9.71443°
Altitude
355.23 km
Speed
7.698 km/s
True Right ascension
20h 05m 58s
True Declination
0° 00' 00"
Sunlit
Object was in full shadow at epoch
Visualization orbit readout
Latitude
Unknown
Longitude
Unknown
Altitude
Unknown
Speed
Unknown
Apparent Right ascension
Unknown
Apparent Declination
Unknown
Sunlit
N/A
Visualization observer readout
Local Sidereal Time
00:50:27
Azimuth
Unknown
Elevation
Unknown
Doppler factor
Unknown
Orbital elements
Apogee altitude
359.588 km
Perigee altitude
357.125 km
Semi-major axis
6,736.493 km
Eccentricity
0.00018
Inclination
42.9996°
RAAN
301.4918°
Arg. of periapsis
42.0049°
True anomaly
318.08191°
Mean anomaly
318.0959°
Eccentric anomaly
318.0889°
Mean motion
3.92548 °/min
Orbital period
91.71 mins
BSTAR
0.0014502
Loading maneuver chart data...
Computing Atmospheric mass density...
Loading historical data...
Loading historical data...
Loading historical data...
Loading historical data...
Loading historical data...
Loading historical data...
Loading historical data...

Documentation

Showing up to 5 results
|